• Em Portugal
  • Lista de países
  • Para 7 dias
  • Temperatura da água
  • Mapas de satélite
  • Mapa do tempo
  • Widgets de tempo
  • user-avatar
    Iniciar Sessão

    Previsão horária em Chizhovka

    Hoje, 24 Setembro, Segunda-feira

    Tempo Temperatura Precipitação Vento Pressão Humidade
    00:00 +8°C° 0 mm 3 m/s 741 mmHg 90%
    01:00 +8°C° 0 mm 3 m/s 740 mmHg 91%
    02:00 +7°C° 0 mm 2 m/s 740 mmHg 93%
    03:00 +8°C° 0.5 mm 2 m/s 739 mmHg 94%
    04:00 +8°C° 0.5 mm 3 m/s 739 mmHg 94%
    05:00 +8°C° 0.5 mm 3 m/s 738 mmHg 94%
    06:00 +7°C° 1.8 mm 4 m/s 737 mmHg 94%
    07:00 +7°C° 1.8 mm 5 m/s 737 mmHg 94%
    08:00 +7°C° 0 mm 5 m/s 736 mmHg 94%
    09:00 +7°C° 3 mm 6 m/s 735 mmHg 94%
    10:00 +7°C° 3 mm 6 m/s 733 mmHg 93%
    11:00 +6°C° 3 mm 7 m/s 732 mmHg 93%
    12:00 +8°C° 3 mm 6 m/s 732 mmHg 94%
    13:00 +8°C° 3 mm 6 m/s 731 mmHg 94%
    14:00 +8°C° 0 mm 5 m/s 730 mmHg 95%
    15:00 +8°C° 1.5 mm 6 m/s 731 mmHg 94%
    16:00 +6°C° 1.5 mm 7 m/s 731 mmHg 93%
    17:00 +6°C° 1.5 mm 8 m/s 731 mmHg 91%
    18:00 +6°C° 0.3 mm 8 m/s 732 mmHg 91%
    19:00 +6°C° 0.3 mm 8 m/s 733 mmHg 90%
    20:00 +6°C° 0.3 mm 7 m/s 734 mmHg 90%
    21:00 +5°C° 0.1 mm 7 m/s 735 mmHg 90%
    22:00 +5°C° 0.1 mm 7 m/s 735 mmHg 91%
    23:00 +5°C° 0.1 mm 6 m/s 736 mmHg 92%

    Amanhã, 25 Setembro, Terça-feira

    Tempo Temperatura Precipitação Vento Pressão Humidade
    00:00 +5°C° 0.1 mm 6 m/s 737 mmHg 91%
    01:00 +5°C° 0.1 mm 6 m/s 737 mmHg 91%
    02:00 +5°C° 0.1 mm 6 m/s 738 mmHg 90%
    03:00 +5°C° 0 mm 6 m/s 739 mmHg 91%
    04:00 +4°C° 0 mm 6 m/s 739 mmHg 91%
    05:00 +3°C° 0 mm 6 m/s 740 mmHg 92%
    06:00 +3°C° 0 mm 6 m/s 741 mmHg 91%
    07:00 +3°C° 0 mm 6 m/s 741 mmHg 90%
    08:00 +3°C° 0 mm 7 m/s 742 mmHg 89%
    09:00 +4°C° 0 mm 7 m/s 743 mmHg 87%
    10:00 +4°C° 0 mm 6 m/s 743 mmHg 86%
    11:00 +4°C° 0 mm 6 m/s 744 mmHg 84%
    12:00 +5°C° 0 mm 6 m/s 744 mmHg 80%
    13:00 +5°C° 0 mm 6 m/s 745 mmHg 76%
    14:00 +7°C° 0 mm 6 m/s 745 mmHg 72%
    15:00 +7°C° 0.1 mm 6 m/s 746 mmHg 72%
    16:00 +7°C° 0.1 mm 5 m/s 746 mmHg 73%
    17:00 +6°C° 0.1 mm 5 m/s 747 mmHg 73%
    18:00 +6°C° 0 mm 5 m/s 748 mmHg 74%
    19:00 +5°C° 0 mm 5 m/s 748 mmHg 75%
    20:00 +4°C° 0 mm 4 m/s 749 mmHg 77%
    21:00 +3°C° 0 mm 4 m/s 750 mmHg 76%
    22:00 +2°C° 0 mm 5 m/s 750 mmHg 76%
    23:00 +1°C° 0 mm 5 m/s 751 mmHg 76%

    Depois de amanhã, 26 Setembro, Quarta-feira

    Tempo Temperatura Precipitação Vento Pressão Humidade
    00:00 +1°C° 0 mm 4 m/s 752 mmHg 76%
    01:00 +1°C° 0 mm 4 m/s 752 mmHg 77%
    02:00 0°C° 0 mm 4 m/s 753 mmHg 77%
    03:00 0°C° 0 mm 4 m/s 753 mmHg 79%
    04:00 -1°C° 0 mm 4 m/s 754 mmHg 81%
    05:00 -1°C° 0 mm 4 m/s 754 mmHg 83%
    06:00 0°C° 0 mm 4 m/s 754 mmHg 83%
    07:00 +1°C° 0 mm 4 m/s 755 mmHg 82%
    08:00 +3°C° 0 mm 4 m/s 755 mmHg 82%
    09:00 +5°C° 0 mm 4 m/s 755 mmHg 75%
    10:00 +7°C° 0 mm 4 m/s 755 mmHg 69%
    11:00 +9°C° 0 mm 5 m/s 755 mmHg 62%
    12:00 +9°C° 0 mm 5 m/s 754 mmHg 59%
    13:00 +10°C° 0 mm 5 m/s 754 mmHg 56%
    14:00 +10°C° 0 mm 5 m/s 753 mmHg 53%
    15:00 +9°C° 0 mm 5 m/s 753 mmHg 57%
    16:00 +9°C° 0 mm 5 m/s 752 mmHg 61%
    17:00 +8°C° 0 mm 4 m/s 752 mmHg 64%
    18:00 +8°C° 0.1 mm 5 m/s 751 mmHg 67%
    19:00 +7°C° 0.1 mm 6 m/s 751 mmHg 69%
    20:00 +7°C° 0.1 mm 6 m/s 750 mmHg 72%
    21:00 +6°C° 0.7 mm 7 m/s 749 mmHg 76%
    22:00 +5°C° 0.7 mm 8 m/s 748 mmHg 81%
    23:00 +5°C° 0.7 mm 8 m/s 747 mmHg 86%

    27 Setembro, Quinta-feira

    Tempo Temperatura Precipitação Vento Pressão Humidade
    00:00 +5°C° 1.4 mm 9 m/s 746 mmHg 87%
    01:00 +5°C° 1.4 mm 9 m/s 745 mmHg 88%
    02:00 +5°C° 1.4 mm 9 m/s 744 mmHg 89%
    03:00 +5°C° 0.9 mm 9 m/s 743 mmHg 90%
    04:00 +6°C° 0.9 mm 9 m/s 743 mmHg 90%
    05:00 +6°C° 0.9 mm 9 m/s 742 mmHg 90%
    06:00 +6°C° 0.5 mm 8 m/s 742 mmHg 91%
    07:00 +7°C° 0.5 mm 8 m/s 742 mmHg 91%
    08:00 +8°C° 0.5 mm 7 m/s 742 mmHg 91%
    09:00 +9°C° 0.3 mm 7 m/s 742 mmHg 89%
    10:00 +10°C° 0.3 mm 6 m/s 742 mmHg 86%
    11:00 +11°C° 0.3 mm 6 m/s 743 mmHg 84%
    12:00 +11°C° 0.1 mm 6 m/s 743 mmHg 77%
    13:00 +13°C° 0.1 mm 6 m/s 743 mmHg 71%
    14:00 +14°C° 0.1 mm 6 m/s 743 mmHg 64%
    15:00 +13°C° 0 mm 5 m/s 743 mmHg 67%
    16:00 +13°C° 0 mm 4 m/s 744 mmHg 70%
    17:00 +12°C° 0 mm 3 m/s 744 mmHg 73%
    18:00 +11°C° 0 mm 3 m/s 744 mmHg 76%
    19:00 +9°C° 0 mm 3 m/s 744 mmHg 79%
    20:00 +8°C° 0 mm 3 m/s 744 mmHg 82%
    21:00 +8°C° 0 mm 3 m/s 744 mmHg 84%
    22:00 +8°C° 0 mm 3 m/s 745 mmHg 87%
    23:00 +7°C° 0 mm 3 m/s 745 mmHg 90%

    28 Setembro, Sexta-feira

    Tempo Temperatura Precipitação Vento Pressão Humidade
    00:00 +8°C° 0 mm 3 m/s 744 mmHg 91%
    01:00 +7°C° 0 mm 4 m/s 744 mmHg 92%
    02:00 +7°C° 0 mm 4 m/s 743 mmHg 94%
    03:00 +8°C° 0 mm 5 m/s 743 mmHg 92%
    04:00 +9°C° 0 mm 7 m/s 742 mmHg 91%
    05:00 +11°C° 0 mm 8 m/s 741 mmHg 90%
    06:00 +11°C° 0 mm 8 m/s 740 mmHg 88%
    07:00 +12°C° 0 mm 9 m/s 739 mmHg 86%
    08:00 +12°C° 0 mm 9 m/s 739 mmHg 84%
    09:00 +13°C° 0.3 mm 10 m/s 739 mmHg 83%
    10:00 +13°C° 0.3 mm 10 m/s 739 mmHg 82%
    11:00 +13°C° 0.3 mm 10 m/s 739 mmHg 81%
    12:00 +13°C° 0.3 mm 10 m/s 739 mmHg 77%
    13:00 +12°C° 0.3 mm 9 m/s 740 mmHg 73%
    14:00 +12°C° 0.3 mm 9 m/s 741 mmHg 70%
    15:00 +11°C° 0 mm 8 m/s 742 mmHg 72%
    16:00 +9°C° 0 mm 6 m/s 743 mmHg 74%
    17:00 +7°C° 0 mm 5 m/s 744 mmHg 76%
    18:00 +6°C° 0 mm 4 m/s 745 mmHg 80%
    19:00 +5°C° 0 mm 3 m/s 745 mmHg 83%
    20:00 +5°C° 0 mm 2 m/s 746 mmHg 87%
    21:00 +5°C° 0 mm 2 m/s 746 mmHg 88%
    22:00 +5°C° 0 mm 2 m/s 747 mmHg 89%
    23:00 +4°C° 0 mm 2 m/s 747 mmHg 90%

    29 Setembro, Sábado

    Tempo Temperatura Precipitação Vento Pressão Humidade
    00:00 +5°C° 0 mm 1 m/s 747 mmHg 91%
    01:00 +5°C° 0 mm 1 m/s 747 mmHg 91%
    02:00 +5°C° 0 mm 1 m/s 747 mmHg 91%
    03:00 +5°C° 0 mm 1 m/s 747 mmHg 91%
    04:00 +4°C° 0 mm 2 m/s 747 mmHg 91%
    05:00 +4°C° 0 mm 2 m/s 747 mmHg 91%
    06:00 +5°C° 0 mm 2 m/s 748 mmHg 88%
    07:00 +5°C° 0 mm 2 m/s 748 mmHg 86%
    08:00 +6°C° 0 mm 2 m/s 748 mmHg 83%
    09:00 +7°C° 0 mm 2 m/s 749 mmHg 80%
    10:00 +8°C° 0 mm 2 m/s 749 mmHg 77%
    11:00 +9°C° 0 mm 2 m/s 749 mmHg 74%
    12:00 +9°C° 0.1 mm 2 m/s 749 mmHg 71%
    13:00 +10°C° 0.1 mm 2 m/s 749 mmHg 69%
    14:00 +10°C° 0.1 mm 3 m/s 749 mmHg 67%
    15:00 +9°C° 0.1 mm 2 m/s 749 mmHg 70%
    16:00 +9°C° 0.1 mm 2 m/s 750 mmHg 73%
    17:00 +8°C° 0.1 mm 2 m/s 750 mmHg 76%
    18:00 +6°C° 0 mm 2 m/s 751 mmHg 77%
    19:00 +5°C° 0 mm 2 m/s 751 mmHg 79%
    20:00 +4°C° 0 mm 2 m/s 751 mmHg 80%
    21:00 +3°C° 0 mm 2 m/s 752 mmHg 79%
    22:00 +3°C° 0 mm 2 m/s 752 mmHg 79%
    23:00 +4°C° 0 mm 1 m/s 752 mmHg 78%
    Mostrar mais